Stations météo

Publicité
Bergerac, France (7530): Température de l'air & dewpoint: 14.09.2018 00:00:00 - 20.09.2018 00:00:00 (CEST)Bergerac, France (7530): Température de l'air 5cm: 14.09.2018 00:00:00 - 20.09.2018 00:00:00 (CEST)Bergerac, France (7530): Température de l'air -20cm & Température de l'air -100cm: 14.09.2018 00:00:00 - 20.09.2018 00:00:00 (CEST)Bergerac, France (7530): Vitesse du vent & gusts: 14.09.2018 00:00:00 - 20.09.2018 00:00:00 (CEST)Bergerac, France (7530): Direction du vent: 14.09.2018 00:00:00 - 20.09.2018 00:00:00 (CEST)Bergerac, France (7530): reduced air pressure: 14.09.2018 00:00:00 - 20.09.2018 00:00:00 (CEST)Bergerac, France (7530): visibility: 14.09.2018 00:00:00 - 20.09.2018 00:00:00 (CEST)Bergerac, France (7530): Ensoleillement: 14.09.2018 00:00:00 - 20.09.2018 00:00:00 (CEST)Bergerac, France (7530): Quantités de précipitations: 14.09.2018 00:00:00 - 20.09.2018 00:00:00 (CEST)
Date & Time tt [°C] td [°C] tt 5cm [°C] tt -20cm [°C] tt -100cm [°C] ff [km/h] ff [knt] fx [km/h] fx [knt] dd ppp [hPa] vv [km] sd [min] rr [mm]
20.09.2018 00:00:00 17,6 15,4 13,9 21,9 19,7 3 1 8 4 W 1021,6 20 0 0,0
19.09.2018 23:00:00 18,8 15,8 15,0 22,0 19,7 4 2 7 4 SW 1021,3 38 0 0,0
19.09.2018 22:00:00 19,5 16,5 16,1 22,0 19,7 3 2 8 4 WSW 1020,9 19 0 0,0
19.09.2018 21:00:00 22,1 16,8 16,6 22,0 19,7 3 2 12 7 NW 1020,3 43 0 0,0
19.09.2018 20:00:00 25,3 17,0 21,3 21,9 19,7 8 4 20 11 NNW 1020,1 48 32 0,0
19.09.2018 19:00:00 28,1 17,6 29,9 21,8 19,7 10 5 18 10 NNW 1019,7 41 60 0,0
19.09.2018 18:00:00 29,0 17,5 30,7 21,6 19,6 10 5 21 11 WNW 1019,5 45 57 0,0
19.09.2018 17:00:00 30,0 18,1 31,3 21,4 19,7 6 4 23 12 W 1019,6 32 47 0,0
19.09.2018 16:00:00 28,7 18,8 29,9 21,1 19,7 9 5 23 12 WNW 1020,1 39 38 0,0
19.09.2018 15:00:00 28,5 19,2 32,6 20,8 19,7 9 5 18 10 N 1020,4 20 43 0,0
19.09.2018 14:00:00 28,3 19,2 32,8 20,6 19,7 7 4 17 9 W 1020,8 34 52 0,0
19.09.2018 13:00:00 27,2 19,0 33,9 20,4 19,7 4 2 13 7 W 1021,1 17 60 0,0
19.09.2018 12:00:00 25,2 18,4 31,1 20,4 19,6 3 2 10 5 SSE 1021,7 20 60 0,0
19.09.2018 11:00:00 22,7 17,6 27,6 20,4 19,6 3 2 10 6 SW 1021,8 20 60 0,0
19.09.2018 10:00:00 20,3 17,5 19,7 20,5 19,6 3 2 11 6 NE 1021,4 17 60 0,0
19.09.2018 09:00:00 17,1 16,8 13,4 20,6 19,7 7 4 11 6 NW 1021,1 14 45 0,0
19.09.2018 08:00:00 15,0 14,5 11,8 20,8 19,7 3 2 7 4 SSW 1020,5 4,6 0 0,0
19.09.2018 07:00:00 15,8 15,3 12,2 20,9 19,7 4 2 8 5 WNW 1020,0 10 0 0,0
19.09.2018 06:00:00 16,2 15,6 13,3 21,0 19,6 6 3 11 6 W 1019,5 11 0 0,0
19.09.2018 05:00:00 17,1 16,5 15,5 21,1 19,6 7 4 16 8 WSW 1019,4 14 0 0,0
19.09.2018 04:00:00 17,0 16,7 13,4 21,3 19,6 10 6 16 9 W 1019,4 9 0 0,0
19.09.2018 03:00:00 16,6 16,1 13,4 21,4 19,6 3 2 6 4 NW 1019,1 1,6 0 0,0
19.09.2018 02:00:00 17,2 16,4 13,9 21,5 19,6 3 1 10 5 N 1018,7 12 0 0,0
19.09.2018 01:00:00 17,7 16,4 14,7 21,6 19,6 0 0 5 3 N 1018,8 13 0 0,0
19.09.2018 00:00:00 19,0 17,5 15,2 21,7 19,6 3 1 8 4 E 1018,7 20 0 0,0
18.09.2018 23:00:00 19,0 17,0 16,0 21,8 19,6 4 2 6 3 SE 1018,2 20 0 0,0
18.09.2018 22:00:00 20,4 17,4 17,0 21,8 19,6 0 0 9 5 N 1017,6 30 0 0,0
18.09.2018 21:00:00 22,3 17,9 18,0 21,8 19,6 4 2 7 4 SW 1016,8 34 0 0,0
18.09.2018 20:00:00 25,9 18,1 20,6 21,7 19,6 5 3 15 8 NNW 1016,0 47 33 0,0
18.09.2018 19:00:00 28,3 17,5 29,7 21,5 19,6 9 5 14 7 WNW 1015,7 3,1 60 0,0
18.09.2018 18:00:00 29,2 17,7 29,6 21,4 19,6 8 5 16 9 NNW 1015,5 18 34 0,0
18.09.2018 17:00:00 29,6 17,1 30,8 21,1 19,6 5 3 16 9 NE 1015,6 46 35 0,0
18.09.2018 16:00:00 29,3 17,5 34,6 20,9 19,6 6 3 18 10 NE 1015,8 56 48 0,0
18.09.2018 15:00:00 28,8 17,7 33,1 20,6 19,6 7 4 17 9 S 1016,3 40 28 0,0
18.09.2018 14:00:00 28,0 17,8 32,2 20,5 19,6 6 3 22 12 SW 1016,6 43 29 0,0
18.09.2018 13:00:00 26,6 18,2 29,3 20,3 19,6 11 6 27 15 SE 1016,9 40 18 0,0
18.09.2018 12:00:00 25,4 17,6 28,3 20,2 19,6 18 10 30 16 SE 1017,2 60 47 0,0
18.09.2018 11:00:00 24,3 18,0 27,4 20,2 19,6 9 5 21 12 SE 1017,7 20 58 0,0
18.09.2018 10:00:00 22,0 17,4 21,2 20,2 19,6 7 4 14 8 NE 1017,4 32 60 0,0
18.09.2018 09:00:00 18,5 16,3 16,3 20,4 19,6 7 4 12 6 ENE 1017,0 20 60 0,0
18.09.2018 08:00:00 16,5 15,5 14,4 20,5 19,6 7 4 13 7 NE 1016,3 19 0 0,0
18.09.2018 07:00:00 16,3 15,2 14,5 20,6 19,6 10 6 14 8 ENE 1015,7 15 0 0,0
18.09.2018 06:00:00 16,8 15,5 15,0 20,7 19,6 8 4 14 8 ENE 1015,5 17 0 0,0
18.09.2018 05:00:00 16,7 15,7 14,4 20,8 19,6 10 5 13 7 ENE 1015,4 18 0 0,0
18.09.2018 04:00:00 17,0 15,5 13,6 20,9 19,6 6 3 12 6 E 1016,1 19 0 0,0
18.09.2018 03:00:00 18,7 16,7 16,1 21,0 19,6 10 5 16 8 E 1015,8 28 0 0,0
18.09.2018 02:00:00 19,6 16,2 17,4 21,1 19,7 8 4 16 9 ENE 1015,4 33 0 0,0
18.09.2018 01:00:00 21,5 16,9 17,9 21,2 19,6 8 5 30 16 E 1014,7 42 0 0,0
18.09.2018 00:00:00 23,3 16,8 21,1 21,3 19,6 14 8 31 17 SE 1014,7 48 0 0,0
17.09.2018 23:00:00 24,4 16,4 17,3 21,3 19,6 14 8 33 18 SSE 1014,7 49 0 0,0
17.09.2018 22:00:00 20,7 16,1 16,1 21,3 19,6 6 3 13 7 SE 1014,6 47 0 0,0
17.09.2018 21:00:00 21,6 16,8 16,1 21,3 19,6 4 2 7 4 ENE 1013,4 43 0 0,0
17.09.2018 20:00:00 27,6 16,2 20,4 21,2 19,7 4 2 19 11 SSE 1012,8 59 35 0,0
17.09.2018 19:00:00 30,5 15,8 32,0 21,0 19,7 12 6 31 17 S 1013,1 52 60 0,0
17.09.2018 18:00:00 31,7 15,2 35,5 20,8 19,6 12 7 28 15 S 1013,2 44 60 0,0
17.09.2018 17:00:00 32,1 15,1 37,2 20,5 19,7 17 9 37 20 SSE 1013,8 44 60 0,0
17.09.2018 16:00:00 31,6 16,0 37,2 20,2 19,6 17 9 34 18 SSE 1014,7 35 60 0,0
17.09.2018 15:00:00 30,7 16,7 35,6 19,9 19,7 17 9 35 19 SE 1015,4 31 60 0,0
17.09.2018 14:00:00 29,1 17,3 34,9 19,7 19,7 18 10 32 18 SE 1016,2 20 60 0,0
17.09.2018 13:00:00 28,1 18,8 32,0 19,5 19,7 14 7 29 16 SSE 1017,1 20 60 0,0
17.09.2018 12:00:00 25,1 18,3 28,4 19,5 19,7 16 9 32 18 SE 1018,1 19 60 0,0
17.09.2018 11:00:00 22,4 17,5 24,8 19,4 19,7 15 8 31 17 SE 1018,9 38 60 0,0
17.09.2018 10:00:00 18,5 15,6 16,3 19,5 19,6 8 4 14 8 ENE 1019,0 30 30 0,0
17.09.2018 09:00:00 15,3 14,2 12,6 19,6 19,6 8 5 16 8 E 1019,1 20 3 0,0
17.09.2018 08:00:00 13,0 12,5 9,7 19,8 19,7 7 4 11 6 ENE 1019,3 19 0 0,2
17.09.2018 07:00:00 11,9 11,3 9,4 19,9 19,7 6 3 10 5 ENE 1019,2 42 0 0,0
17.09.2018 06:00:00 12,5 11,6 9,7 20,0 19,7 3 2 9 5 ESE 1019,1 46 0 0,0
17.09.2018 05:00:00 13,2 12,6 11,5 20,1 19,7 7 4 10 6 E 1019,2 46 0 0,0
17.09.2018 04:00:00 13,1 12,0 11,5 20,2 19,7 3 2 10 5 E 1019,6 43 0 0,0
17.09.2018 03:00:00 14,0 13,0 12,0 20,4 19,7 7 4 10 6 E 1019,5 54 0 0,0
17.09.2018 02:00:00 13,9 12,8 12,0 20,5 19,7 5 3 8 4 E 1019,8 50 0 0,0
17.09.2018 01:00:00 14,3 13,0 11,5 20,6 19,7 5 3 9 5 E 1020,0 57 0 0,0
17.09.2018 00:00:00 14,2 12,8 11,7 20,7 19,7 4 2 11 6 ENE 1020,2 58 0 0,0
16.09.2018 23:00:00 15,5 13,9 12,6 20,8 19,7 4 2 11 6 NE 1020,3 60 0 0,0
16.09.2018 22:00:00 16,8 13,7 12,8 20,9 19,7 2 1 7 4 SE 1020,1 60 0 0,0
16.09.2018 21:00:00 19,1 14,4 14,4 20,8 19,7 0 0 7 4 N 1019,5 60 0 0,0
16.09.2018 20:00:00 22,3 14,9 18,2 20,7 19,7 3 2 6 3 E 1019,1 60 0 0,0
16.09.2018 19:00:00 26,7 13,1 25,4 20,5 19,7 5 3 10 6 WNW 1018,8 20 0 0,0
16.09.2018 18:00:00 28,0 11,1 29,8 20,3 19,7 8 4 16 9 NW 1018,9 60 26 0,0
16.09.2018 17:00:00 28,9 11,5 32,6 20,0 19,7 9 5 17 9 W 1018,8 19 55 0,0
16.09.2018 16:00:00 29,6 12,1 36,5 19,7 19,7 6 3 16 9 S 1018,9 42 60 0,0
16.09.2018 15:00:00 28,6 12,9 36,0 19,3 19,7 8 4 22 12 W 1019,2 18 60 0,0
16.09.2018 14:00:00 28,1 13,2 35,7 19,0 19,7 4 2 14 8 N 1019,7 46 60 0,0
16.09.2018 13:00:00 26,3 13,8 34,3 18,9 19,7 6 3 17 9 NE 1020,1 60 60 0,0
16.09.2018 12:00:00 24,6 14,7 29,2 18,8 19,7 5 3 19 10 NNE 1020,6 41 60 0,0
16.09.2018 11:00:00 21,6 13,8 23,8 18,9 19,7 11 6 21 12 SE 1020,5 57 60 0,0
16.09.2018 10:00:00 15,9 12,8 16,5 19,0 19,7 7 4 11 6 ENE 1020,9 43 60 0,0
16.09.2018 09:00:00 11,5 10,9 6,4 19,2 19,8 4 2 6 3 ENE 1020,9 50 43 0,0
16.09.2018 08:00:00 8,1 7,8 5,7 19,3 19,7 4 2 8 4 ENE 1020,5 19 0 0,0
16.09.2018 07:00:00 8,0 7,7 5,0 19,5 19,7 6 4 8 4 E 1019,9 16 0 0,0
16.09.2018 06:00:00 8,5 7,9 5,2 19,7 19,8 3 2 5 3 E 1019,7 16 0 0,0
16.09.2018 05:00:00 10,0 9,5 6,7 19,8 19,7 4 2 7 4 E 1019,4 39 0 0,0
16.09.2018 04:00:00 10,3 9,7 7,7 20,0 19,8 5 3 8 4 E 1019,7 42 0 0,0
16.09.2018 03:00:00 10,8 10,2 8,7 20,2 19,8 5 3 10 5 ENE 1020,2 45 0 0,2
16.09.2018 02:00:00 10,5 10,0 7,1 20,4 19,8 6 4 8 4 ENE 1020,5 53 0 0,0
16.09.2018 01:00:00 10,9 10,0 7,5 20,6 19,8 4 2 9 5 E 1020,8 52 0 0,0
16.09.2018 00:00:00 11,3 10,4 7,3 20,7 19,8 6 3 8 4 E 1020,9 52 0 0,0
15.09.2018 23:00:00 12,4 10,8 7,9 20,8 19,8 2 1 7 4 E 1021,0 60 0 0,0
15.09.2018 22:00:00 14,1 11,6 8,9 20,9 19,8 5 3 6 4 ENE 1020,9 60 0 0,0
15.09.2018 21:00:00 17,0 11,7 10,5 20,9 19,8 4 2 4 2 SE 1020,7 60 0 0,0
15.09.2018 20:00:00 23,4 10,8 16,0 20,8 19,8 2 1 9 5 N 1020,3 60 41 0,0
15.09.2018 19:00:00 25,9 10,5 28,1 20,7 19,8 7 4 17 9 NE 1020,2 60 53 0,0
15.09.2018 18:00:00 26,7 9,1 31,2 20,5 19,8 7 4 20 11 N 1020,2 19 60 0,0
15.09.2018 17:00:00 26,9 10,1 33,3 20,2 19,8 7 4 20 11 NW 1020,7 55 60 0,0
15.09.2018 16:00:00 27,0 12,2 32,9 20,0 19,8 7 4 23 13 N 1021,1 50 58 0,0
15.09.2018 15:00:00 26,0 11,0 33,1 19,7 19,8 6 3 19 10 N 1021,5 19 60 0,0
15.09.2018 14:00:00 25,1 11,3 31,1 19,5 19,8 5 3 18 10 W 1022,0 60 60 0,0
15.09.2018 13:00:00 23,8 12,4 31,5 19,3 19,8 6 3 16 9 NW 1022,8 39 60 0,0
15.09.2018 12:00:00 22,3 13,4 28,3 19,3 19,8 5 3 16 8 NNW 1023,4 46 60 0,0
15.09.2018 11:00:00 19,3 12,8 26,2 19,4 19,8 3 2 10 6 ENE 1023,8 58 60 0,0
15.09.2018 10:00:00 16,1 13,2 18,9 19,5 19,8 2 1 7 4 E 1023,9 42 60 0,0
15.09.2018 09:00:00 12,3 12,0 7,5 19,7 19,8 0 0 4 2 N 1023,6 18 52 0,0
15.09.2018 08:00:00 9,2 8,9 5,8 19,9 19,8 2 1 4 2 ESE 1023,6 10 2 0,0
15.09.2018 07:00:00 9,5 9,2 5,9 20,1 19,8 3 1 6 3 ENE 1023,2 19 0 0,0
15.09.2018 06:00:00 9,5 8,9 6,6 20,3 19,8 4 2 5 3 S 1022,9 16 0 0,0
15.09.2018 05:00:00 10,4 9,8 6,7 20,5 19,8 2 1 5 3 NE 1022,5 19 0 0,0
15.09.2018 04:00:00 11,2 10,1 7,0 20,6 19,8 0 0 11 6 N 1022,7 39 0 0,0
15.09.2018 03:00:00 12,2 10,8 7,7 20,8 19,8 7 4 9 5 W 1022,9 57 0 0,0
15.09.2018 02:00:00 13,2 11,1 8,7 21,0 19,8 6 4 11 6 W 1022,9 58 0 0,0
15.09.2018 01:00:00 14,0 11,9 9,3 21,2 19,8 6 3 15 8 WSW 1022,9 56 0 0,0
15.09.2018 00:00:00 14,1 12,1 9,4 21,3 19,8 6 3 9 5 W 1022,7 60 0 0,0
14.09.2018 23:00:00 13,8 11,3 10,2 21,4 19,8 5 3 8 5 SW 1022,5 60 0 0,0
14.09.2018 22:00:00 15,5 12,4 11,3 21,5 19,8 5 3 11 6 SW 1022,2 59 0 0,0
14.09.2018 21:00:00 17,3 12,8 13,4 21,6 19,8 5 3 12 6 W 1021,6 60 0 0,0
14.09.2018 20:00:00 21,2 12,6 17,8 21,5 19,8 8 4 13 7 N 1020,9 60 33 0,0
14.09.2018 19:00:00 23,0 13,5 22,9 21,4 19,8 7 4 18 10 NNW 1020,7 60 0 0,0
14.09.2018 18:00:00 24,1 12,4 24,7 21,2 19,7 10 6 26 14 NW 1020,4 59 48 0,0
14.09.2018 17:00:00 26,1 14,2 28,0 21,0 19,8 16 9 25 13 W 1020,2 60 51 0,0
14.09.2018 16:00:00 25,4 14,8 26,4 20,8 19,8 10 5 22 12 NW 1020,5 60 29 0,0
14.09.2018 15:00:00 24,4 15,3 27,8 20,7 19,8 14 8 21 12 NNW 1020,7 38 38 0,0
14.09.2018 14:00:00 23,7 13,6 24,9 20,4 19,8 10 5 24 13 NW 1021,3 60 14 0,0
14.09.2018 13:00:00 24,2 16,2 28,8 20,3 19,8 9 5 18 10 WSW 1021,4 19 43 0,0
14.09.2018 12:00:00 22,0 16,9 26,3 20,2 19,8 7 4 15 8 N 1021,7 35 29 0,0
14.09.2018 11:00:00 19,9 16,5 24,1 20,2 19,8 3 2 9 5 WNW 1021,7 25 30 0,0
14.09.2018 10:00:00 17,8 16,3 19,1 20,3 19,8 8 4 13 7 W 1021,6 19 15 0,0
14.09.2018 09:00:00 16,9 16,4 15,6 20,4 19,8 6 3 11 6 W 1021,1 14 34 0,2
14.09.2018 08:00:00 15,9 15,4 15,4 20,5 19,8 6 3 13 7 W 1020,8 9 3 0,0
14.09.2018 07:00:00 16,0 15,7 11,6 20,6 19,8 9 5 13 7 W 1020,7 11 0 0,0
14.09.2018 06:00:00 15,2 14,7 11,3 20,7 19,8 5 3 10 6 W 1020,4 2,0 0 0,0
14.09.2018 05:00:00 15,9 14,9 14,1 20,8 19,7 7 4 12 7 W 1020,6 18 0 0,0
14.09.2018 04:00:00 17,3 15,8 16,4 20,9 19,8 9 5 16 9 W 1020,8 39 0 0,0
14.09.2018 03:00:00 17,9 16,2 17,4 20,9 19,7 9 5 16 9 W 1021,0 43 0 0,0
14.09.2018 02:00:00 18,5 16,5 17,5 21,0 19,8 10 6 23 12 W 1021,3 50 0 0,0
14.09.2018 01:00:00 19,2 16,4 18,8 21,1 19,8 15 8 22 12 WNW 1021,2 57 0 0,0
14.09.2018 00:00:00 19,6 16,6 18,1 21,1 19,7 12 7 19 10 W 1021,2 58 0 0,0

tt = Température de l'air
td = dewpoint
tt 5cm = Température de l'air 5cm
tt -20cm = Température de l'air -20cm
tt -100cm = Température de l'air -100cm
ff = Vitesse du vent
fx = gusts
dd = Direction du vent
ppp = reduced air pressure
vv = visibility
sd = Ensoleillement
rr = Quantités de précipitations

stations d'obs. à proximité